FENGYUN 1C DEB, 30418

Orbit data source: Space-Track

FENGYUN 1C DEB, 30418 is space debris in SSO originally from a launch on Mon, 10 May 1999 UTC launched from the Taiyaun Space Center, China (TSC). Fengyun 1C debris stems from the Chinese weather satellite Fengyun-1C, which was intentionally destroyed by a Chinese anti-satellite missile in 2007. This event dramatically increased the amount of space debris, with thousands of trackable fragments posing hazards to satellites and human spaceflight. The Fengyun 1C debris cloud has become a focal point in discussions about space sustainability and the need for international regulations to prevent the creation of new debris.

Loading next visibility...
Identifier
30418, 1999-025AEH
Orbit
SSO
Country
Flag of CNCN / PRC
Related business
Manufacturer
Unknown
Mission
Spacecraft
Bus & Motor
Unknown
Mass
Unknown
Launch date (UTC)
1999-05-10 (27 years ago)
Launch vehicle
Unknown
Launch site
Taiyaun Space Center, China (TSC)
Object type
Payload
Rocket body
Debris
Shape & HBR
Unknown shape, 0.1 m
Radar Cross Section
Small (<0.1 m²)

Expand to show TLE details & history
Last TLE update: 9 hours ago

TLE from 9 hours ago
0 FENGYUN 1C DEB
1 30418U 99025AEH 26122.44834321  .00006090  00000-0  62652-3 0  9992
2 30418  98.8528 302.7990 0106246  27.8090   2.7711 14.86612387 26814
Epoch: 2026-05-02T10:45Z
TLE epoch observation values (Epoch: 2026-05-02T10:45:36.853Z)
Latitude
30.29209°
Longitude
-84.16215°
Altitude
538.232 km
Speed
7.636 km/s
True Right ascension
19h 50m 25s
True Declination
30° 08' 16"
Sunlit
Object was in daylight at epoch
Visualization orbit readout
Latitude
Unknown
Longitude
Unknown
Altitude
Unknown
Speed
Unknown
Apparent Right ascension
Unknown
Apparent Declination
Unknown
Sunlit
N/A
Visualization observer readout
Local Sidereal Time
03:44:45
Azimuth
Unknown
Elevation
Unknown
Doppler factor
Unknown
Orbital elements
Apogee altitude
679.806 km
Perigee altitude
531.407 km
Semi-major axis
6,983.743 km
Eccentricity
0.01062
Inclination
98.8528°
RAAN
302.799°
Arg. of periapsis
27.809°
True anomaly
2.83075°
Mean anomaly
2.7711°
Eccentric anomaly
2.80085°
Mean motion
3.71887 °/min
Orbital period
96.8 mins
BSTAR
0.00062652
Loading maneuver chart data...
Computing Atmospheric mass density...

Documentation

Showing up to 5 results
|